Location: Sungai Dangang
(2.7500°N, 113.8333°E)
Time: 10:15:15
(UTC+00:00)

Daily predictions for brighter satellites

Satellite Brightness Start Highest point End
(mag) Time Altitude Azimuth Time Altitude Azimuth Time Altitude Azimuth
Meteor 1-26 Rocket 4.4 12:05:13 10° S 12:11:03 73° W 12:16:42 10° N
ASC 2 Rocket 4.1 12:04:37 10° NW 12:12:41 59° NNE 12:13:53 50° ENE
Cosmos 2278 Rocket 3.6 12:07:36 10° SW 12:12:47 38° WNW 12:17:58 10° N
CSL-04 Debris 4.1 12:11:45 49° SSE 12:13:17 89° WSW 12:18:42 10° NNW
CSL-04 Rocket 3.5 12:19:38 68° S 12:20:18 82° WSW 12:25:35 10° NNW
Ariane 42L Rocket 4.2 12:15:01 10° W 12:21:17 70° N 12:25:35 38° ENE
ARIANE 5 R/B 4.3 12:29:11 10° W 12:29:50 14° WSW 12:29:50 14° WSW
Cosmos 1386 Rocket 4.4 12:27:04 10° N 12:32:44 75° NNE 12:32:44 75° NNE
SL-4 R/B 3.6 12:29:44 10° NNW 12:32:28 35° NNW 12:32:28 35° NNW
ATLAS 5 CENTAUR R/B 3.9 12:30:40 10° N 12:34:26 28° NNE 12:34:26 28° NNE
SJ 16-02 3.0 12:40:41 31° W 12:40:47 31° WNW 12:44:41 10° NNW
BREEZE-M DEB (TANK) 4.0 12:39:46 10° NW 12:54:22 61° WSW 12:54:22 61° WSW
H-II Stage 2 4.1 12:58:05 10° WNW 13:04:38 35° WNW 13:04:38 35° WNW
Ariane H10+ 4.4 19:06:55 52° SE 19:06:55 52° SE 19:12:45 10° ESE
USA 215 4.4 19:12:41 10° ESE 19:18:36 37° NE 19:24:30 10° NNW
Cosmos 2219 Rocket 3.9 19:32:14 29° ENE 19:32:14 29° ENE 19:35:47 10° NE
Cosmos 2360 Rocket 4.5 19:36:35 16° N 19:36:35 16° N 19:37:36 10° N
Cosmos 2263 Rocket 4.3 19:29:36 10° NNE 19:33:55 22° ENE 19:38:14 10° SE
COSMOS 2428 4.3 19:36:25 29° E 19:36:25 29° E 19:40:46 10° NE
CZ-3B Rocket 3.9 19:44:50 46° SSE 19:45:40 47° SSE 20:16:26 10° ENE
CZ-3B Rocket 3.9 19:44:50 46° SSE 19:45:40 47° SSE 20:16:27 10° ENE
CZ-3B Rocket 3.9 19:44:49 46° SSE 19:45:40 47° SSE 20:16:27 10° ENE
CZ-3B Rocket 3.9 19:44:50 46° SSE 19:45:41 47° SSE 20:16:27 10° ENE
ATLAS 3B R/B 2.9 20:02:12 54° SE 20:03:06 59° ESE 20:09:28 10° NE
Hubble Space Telescope 3.0 20:05:52 21° NNE 20:05:52 21° NNE 20:07:27 10° NE
USA 234 3.3 20:00:59 10° NE 20:07:28 72° SE 20:08:26 62° S
BLOCK DM-SL R/B 4.0 19:15:28 10° W 20:09:39 75° S 20:14:34 10° E
Cosmos 2034 Rocket 4.0 20:06:12 10° N 20:12:26 79° E 20:14:57 39° SSE
Palapa 6 Rocket 4.5 20:15:44 29° NE 20:15:44 29° NE 20:17:53 10° ENE
Cosmos 2322 4.3 20:17:26 45° NNW 20:17:26 45° NNW 20:21:35 10° N
Chandra Rocket (1) 4.0 20:16:50 28° SSE 20:16:50 28° SSE 20:20:09 10° ESE
Cosmos 2058 Rocket 4.3 20:13:13 10° N 20:15:55 36° N 20:15:55 36° N
Milstar 3 3.0 20:18:36 56° SW 20:19:10 58° SSW 20:28:48 10° SE
Cosmos 1758 Rocket 3.9 20:23:47 61° ESE 20:24:00 62° E 20:28:21 10° NNE
Cosmos 2227 4.4 20:18:35 10° N 20:24:09 69° ENE 20:29:43 10° SSE
CZ-2C R/B 2.8 20:27:26 25° NE 20:27:26 25° NE 20:29:42 10° E
ALOS 2.6 20:23:22 10° N 20:27:01 52° NNW 20:27:01 52° NNW
FENGYUN 3A 3.6 20:22:59 10° N 20:28:09 63° WNW 20:28:09 63° WNW
Cosmos 1484 Rocket 3.6 20:25:14 10° NNE 20:27:57 45° NNE 20:27:57 45° NNE
Cosmos 1992 Rocket 3.8 20:29:03 76° SW 20:29:22 81° WNW 20:34:33 10° N
Cosmos 2333 Rocket 2.9 20:34:28 36° NW 20:34:28 36° NW 20:38:55 10° N
deb Ariane 4.0 20:35:41 27° NE 20:35:41 27° NE 20:37:47 10° ENE
BREEZE-M TANK 4.4 20:19:43 10° NW 20:35:57 62° NE 20:40:28 10° ESE
ASTEX 1 4.5 20:34:27 10° SSE 20:39:11 45° E 20:43:53 10° NNE
Cosmos 2237 Rocket 3.4 20:36:00 10° S 20:41:16 40° ESE 20:46:31 10° NE
deb Ariane 2.8 20:41:39 57° NNE 20:41:39 57° NNE 20:44:21 10° ENE
NOSS 0 Rocket 4.1 20:39:07 20° S 20:43:26 71° ESE 20:49:32 10° NNE
SJ-6F 4.4 20:46:30 10° N 20:50:28 54° WNW 20:50:43 53° W
ARIANE 5 DEB (SYLDA) 3.5 20:49:48 42° SW 20:50:56 56° S 20:54:35 10° E
Ariane H10-3 2.4 20:50:18 38° W 20:52:00 83° N 21:07:22 10° E
Aureole 1 Rocket 3.8 20:49:40 10° N 20:54:41 82° ENE 21:01:23 10° SSE
Milstar 3 Cent rocket 4.2 20:48:50 18° SW 20:55:55 36° SSE 21:01:53 10° E
METEOR-M 4.5 20:54:10 10° N 20:59:11 43° WNW 21:01:25 29° SW
USA 215 3.8 20:55:37 10° S 21:01:21 33° SW 21:07:05 10° WNW
Aureole 3 4.1 20:58:45 10° NNE 21:01:31 37° E 21:04:23 10° SSE
Envisat 4.4 21:03:21 10° NE 21:08:02 38° ESE 21:12:43 10° S
Ariane 44LP R/B 4.4 21:06:02 28° W 21:08:21 75° S 21:20:27 10° E
Meteor 1-4 Rocket 4.5 21:07:48 10° NNE 21:11:04 32° E 21:14:18 10° SSE
Ariane H10 4.0 21:11:39 13° S 21:11:39 13° S 21:12:31 10° SSE
Cosmos 192 4.2 21:07:35 11° SSW 21:12:17 78° WNW 21:17:13 10° N
Cosmos 2219 Rocket 3.7 21:14:00 16° W 21:14:26 16° WNW 21:17:52 10° NW
ARIANE 3 DEB 4.0 21:14:40 20° SW 21:17:28 33° S 21:20:31 10° ESE
Cosmos 2263 Rocket 3.1 21:12:58 10° NW 21:17:33 25° WSW 21:22:09 10° SSW
Cosmos 1812 Rocket 3.4 21:13:55 10° N 21:18:13 80° W 21:22:32 10° S
Cosmos 1844 Rocket 4.3 21:13:43 10° N 21:18:56 39° ENE 21:24:10 10° SE
Nadezhda 4 Rocket 4.0 21:12:47 10° S 21:19:09 83° W 21:25:27 10° N
COSMOS 2428 4.1 21:18:30 18° W 21:19:53 19° WNW 21:23:48 10° NNW
ADEOS 3.6 21:15:27 10° N 21:20:35 63° WNW 21:25:45 10° SSW
ISS -1.9 21:18:55 10° NNW 21:22:01 35° NE 21:25:07 10° ESE
ARIANE 5 DEB (SYLDA) 2.9 21:20:34 20° WSW 21:23:36 57° S 21:28:54 10° ESE
Centaur D AC-29 2.5 21:23:07 10° WNW 21:27:01 78° NNE 21:45:02 10° ESE
Centaur D AC-25 2.4 21:24:00 10° WNW 21:27:34 81° SSW 21:34:48 10° ESE
Cosmos 1892 3.5 21:26:37 14° SW 21:29:07 28° W 21:32:22 10° NNW
Cosmos 2098 Rocket 4.1 21:23:35 10° S 21:29:17 84° E 21:36:11 10° N
CZ-4C R/B 3.2 21:29:11 10° SSE 21:32:27 66° E 21:35:37 10° N
IRAS Rocket 4.5 21:29:57 10° S 21:35:13 46° WSW 21:40:31 10° NNW
Ariane H10 2.8 21:29:36 10° W 21:38:37 48° SSW 21:41:40 10° ESE
ATLAS 3B CENTAUR R/B 4.0 21:39:11 10° S 21:40:01 10° S 21:40:48 10° SSE
H-2A R/B 2.9 21:36:37 10° N 21:40:20 54° W 21:44:06 10° SSW
Cosmos 1953 Rocket 4.4 21:36:55 10° SW 21:40:42 28° W 21:44:28 10° NNW
Cosmos 1408 3.7 21:38:01 10° SW 21:40:55 23° W 21:43:49 10° NNW
ARIANE 5 DEB (SYLDA) 4.3 21:38:50 11° WSW 21:41:49 29° S 21:45:59 10° ESE
Cosmos 1980 4.3 21:38:09 10° SW 21:43:18 37° WNW 21:48:27 10° N
Ariane H10+ 3.0 21:45:57 10° WSW 21:49:01 55° S 22:01:34 10° ESE
H-2A R/B 3.0 21:46:54 10° SSE 21:51:12 57° ENE 21:55:32 10° N
Cosmos 968 Rocket 4.1 21:46:14 10° N 21:51:14 61° ENE 21:56:16 10° SSE
ATLAS 3B R/B 4.3 21:51:09 10° W 21:53:33 12° WNW 21:55:59 10° NW
COSMO-SKYMED 1 3.5 21:50:26 10° SSE 21:54:40 55° ENE 21:58:54 10° N
Landsat 5 3.9 21:51:53 10° S 21:56:11 45° WSW 22:00:23 10° NNW
SL-16 R/B 2.7 21:50:49 10° S 21:56:28 66° ESE 22:02:05 10° NNE
ATLAS V CENTAUR R/B 3.3 21:53:51 10° WSW 22:03:37 78° SSE 22:06:13 10° ENE
